Weather History for New Iberia, LA

Change the Weather History Date:

Sunday, January 27, 2013

  Actual Average Record
Temperature  
Mean Temperature 66 °F 53 °F  
Max Temperature 78 °F 63 °F 80 °F (1957)
Min Temperature 53 °F 43 °F 24 °F (1966)
Degree Days  
Heating Degree Days 0 12  
Month to date heating degree days 259 345  
Since 1 July heating degree days 694 892  
Cooling Degree Days 1 0  
Month to date cooling degree days 23 9  
Year to date cooling degree days 23 9  
Growing Degree Days 15 (Base 50)    
Moisture  
Dew Point 56 °F    
Average Humidity 75    
Maximum Humidity 93    
Minimum Humidity 56    
Precipitation  
Precipitation 0.00 in 0.17 in 1.86 in (1992)
Month to date precipitation 11.95 4.50  
Year to date precipitation 11.95 4.50  
Sea Level Pressure  
Sea Level Pressure 30.20 in    
Wind  
Wind Speed 10 mph (SE)    
Max Wind Speed 21 mph    
Max Gust Speed 26 mph    
Visibility 6 miles    
Events Fog    
T = Trace of Precipitation, MM = Missing Value Source: NWS Daily Summary

Daily Weather History Graph

Daily Weather History Graph

Search for Another Location

Airport:

Trip Planner

Search our weather history database for the weather conditions in past years. The results will help you decide how hot, cold, wet, or windy it might be!

Date:

Astronomy

Jan. 27, 2013 Rise Set
Actual Time 7:00 AM CST 5:40 PM CST
Civil Twilight 6:35 AM CST 6:05 PM CST
Nautical Twilight 6:06 AM CST 6:34 PM CST
Astronomical Twilight 5:37 AM CST 7:03 PM CST
Moon 6:27 PM CST (1/27) 6:59 AM CST (1/27)
Length of Visible Light 11h 30m
Length of Day
10h 40m
Full, 100% of the Moon is Illuminated
Jan 27
Full
Feb 3
Last Quarter
Feb 10
New
Feb 17
First Quarter
Feb 25
Full

Hourly Weather History & Observations

Time (CST) Temp. Dew Point Humidity Pressure Visibility Wind Dir Wind Speed Gust Speed Precip Events Conditions
12:53 AM 57.0 °F 53.1 °F 87% 30.21 in 10.0 mi SSE 5.8 mph - N/A   Clear
1:53 AM 55.9 °F 53.1 °F 90% 30.21 in 6.0 mi SE 4.6 mph - N/A   Clear
2:37 AM 55.4 °F 51.8 °F 88% 30.21 in 1.8 mi SE 3.5 mph - N/A   Clear
2:50 AM 55.4 °F 51.8 °F 88% 30.21 in 2.0 mi ESE 3.5 mph - N/A   Clear
2:53 AM 55.0 °F 53.1 °F 93% 30.21 in 1.8 mi SE 4.6 mph - N/A   Clear
3:13 AM 55.4 °F 53.6 °F 94% 30.21 in 0.8 mi SE 4.6 mph - N/A   Clear
3:27 AM 55.4 °F 51.8 °F 88% 30.21 in 1.0 mi ESE 5.8 mph - N/A   Clear
3:38 AM 53.6 °F 51.8 °F 94% 30.21 in 0.2 mi SE 5.8 mph - N/A Fog Fog
3:50 AM 53.6 °F 51.8 °F 94% 30.20 in 0.8 mi SE 5.8 mph - N/A   Clear
3:53 AM 54.0 °F 51.1 °F 90% 30.20 in 0.8 mi SE 5.8 mph - N/A   Clear
4:03 AM 55.4 °F 51.8 °F 88% 30.20 in 1.0 mi SE 4.6 mph - N/A   Clear
4:37 AM 55.4 °F 53.6 °F 94% 30.20 in 2.0 mi ESE 4.6 mph - N/A   Clear
4:53 AM 55.0 °F 53.1 °F 93% 30.19 in 2.0 mi ESE 5.8 mph - N/A   Clear
5:06 AM 53.6 °F 51.8 °F 94% 30.19 in 1.8 mi ESE 5.8 mph - N/A   Clear
5:50 AM 53.6 °F 51.8 °F 94% 30.19 in 2.5 mi ESE 5.8 mph - N/A   Clear
5:53 AM 54.0 °F 52.0 °F 93% 30.19 in 3.0 mi ESE 5.8 mph - N/A   Clear
6:53 AM 55.9 °F 54.0 °F 93% 30.20 in 2.5 mi SE 4.6 mph - N/A   Clear
7:02 AM 55.4 °F 53.6 °F 94% 30.21 in 1.5 mi SE 4.6 mph - N/A   Clear
7:27 AM 55.4 °F 53.6 °F 94% 30.21 in 2.0 mi ESE 3.5 mph - N/A   Clear
7:39 AM 55.4 °F 53.6 °F 94% 30.21 in 3.0 mi ESE 4.6 mph - N/A   Clear
7:53 AM 60.1 °F 55.9 °F 86% 30.21 in 6.0 mi ESE 5.8 mph - N/A   Clear
8:53 AM 64.9 °F 59.0 °F 81% 30.23 in 10.0 mi SE 10.4 mph - N/A   Clear
9:53 AM 70.0 °F 61.0 °F 73% 30.24 in 10.0 mi SE 12.7 mph - N/A   Clear
10:53 AM 75.0 °F 61.0 °F 62% 30.24 in 10.0 mi SSE 15.0 mph - N/A   Clear
11:53 AM 75.9 °F 60.1 °F 58% 30.22 in 10.0 mi SSE 18.4 mph 25.3 mph N/A   Scattered Clouds
12:53 PM 75.9 °F 60.1 °F 58% 30.19 in 10.0 mi South 16.1 mph - N/A   Mostly Cloudy
1:53 PM 77.0 °F 61.0 °F 58% 30.17 in 10.0 mi SSE 17.3 mph - N/A   Mostly Cloudy
2:53 PM 75.0 °F 60.1 °F 60% 30.17 in 10.0 mi South 17.3 mph - N/A   Overcast
3:53 PM 75.0 °F 61.0 °F 62% 30.17 in 10.0 mi SSE 13.8 mph - N/A   Mostly Cloudy
4:53 PM 73.0 °F 61.0 °F 66% 30.17 in 10.0 mi SSE 13.8 mph 24.2 mph N/A   Mostly Cloudy
5:53 PM 71.1 °F 61.0 °F 70% 30.17 in 10.0 mi SE 11.5 mph - N/A   Overcast
6:53 PM 69.1 °F 61.0 °F 75% 30.17 in 10.0 mi SE 10.4 mph - N/A   Scattered Clouds
7:53 PM 66.9 °F 61.0 °F 81% 30.18 in 10.0 mi SE 11.5 mph - N/A   Partly Cloudy
8:53 PM 66.0 °F 60.1 °F 81% 30.19 in 10.0 mi SE 8.1 mph - N/A   Clear
9:48 PM 64.4 °F 60.8 °F 88% 30.19 in 10.0 mi SE 5.8 mph - N/A   Mostly Cloudy
9:53 PM 64.9 °F 60.1 °F 84% 30.19 in 10.0 mi SE 5.8 mph - N/A   Mostly Cloudy
10:29 PM 64.4 °F 60.8 °F 88% 30.19 in 10.0 mi SSE 8.1 mph - N/A   Mostly Cloudy
10:53 PM 64.9 °F 60.1 °F 84% 30.17 in 10.0 mi SE 10.4 mph - N/A   Mostly Cloudy
11:51 PM 64.4 °F 60.8 °F 88% 30.20 in 10.0 mi SE 6.9 mph - N/A   Mostly Cloudy
11:53 PM 64.9 °F 60.1 °F 84% 30.19 in 10.0 mi SE 6.9 mph - N/A   Mostly Cloudy